Miscellaneous Local Product
Issued by NWS North Platte, NE

Home | Current Version | Previous Version | Graphics & Text | Print | Product List | Glossary Off
Versions: 1 2 3 4 5 6 7 8 9 10 11 12 13 14 15 16 17 18 19 20 21 22 23 24 25 26 27 28 29 30 31 32 33 34 35 36 37 38 39 40 41 42 43 44 45 46 47 48 49 50

000
AXUS43 KLBF 011810
MISLBF


WESTERN AND NORTH CENTRAL NEBRASKA HOURLY WEATHER ROUNDUP
NATIONAL WEATHER SERVICE NORTH PLATTE NE
1200 PM CST SUN FEB 01 2015

***STATIONS NOT REPORTING VARIABLES SUCH AS SKY/WEATHER OR
PRESSURE ARE PROVIDED BY THE NEBRASKA DEPARTMENT OF
ROADS...RAWS...AND APRS NETWORKS...AND ARE NOT UNDER
NATIONAL WEATHER SERVICE QUALITY CONTROL***

...OBSERVATIONS IN AND NEAR THE EASTERN PANHANDLE OF NEBRASKA...

CITY           SKY/WX    TMP DP  RH WIND       PRES   REMARKS
PINE RIDGE     PTSUNNY    6  -1  73 NW13G24   30.35R WCI -10
CHADRON        CLOUDY     6   0  76 NE7       30.37S WCI  -6
ALLIANCE       CLOUDY     8   1  73 N16       30.28R WCI -10
SIDNEY         CLOUDY    14   7  73 N18       30.24R WCI  -3
WHITECLAY        N/A      6  -4  65 W18         N/A  WCI -14
CRESCENT LAKE    N/A      8   0  70 N17G24      N/A  WCI -10
LISCO            N/A     15   2  56 NW25        N/A  WCI  -4
LEWELLEN         N/A     10  -1  63 W13         N/A  WCI  -6
$$

...OBSERVATIONS IN NORTH CENTRAL NEBRASKA...

CITY           SKY/WX    TMP DP  RH WIND       PRES   REMARKS
VALENTINE      LGT SNOW   2  -5  72 NW16G29   30.35R VSB 1   WCI -18
THEDFORD       MOSUNNY    5  -1  76 N15G22    30.28S WCI -13
AINSWORTH      CLOUDY     2  -4  75 N21G32    30.31S HAZE    WCI -20
O`NEILL        CLOUDY     5   0  80 NW28G35   30.28R HAZE    WCI -19
ORD            LGT SNOW   5  -2  72 NW25G36   30.24R WCI -18
BROKEN BOW     LGT SNOW   7   1  76 N25G33    30.23S VSB 1   WCI -15
BROWNLEE         N/A     -1  -8  74 N24         N/A  WCI -26
VALENTINE NWR    N/A      2  -4  75 N21G30      N/A  WCI -20
SPRINGVIEW       N/A      1  -5  76 NW16G26     N/A  WCI -19
HALSEY           N/A      4  -2  74 NW13G26     N/A  WCI -13
BREWSTER         N/A      7   1  76 SE24        N/A  WCI -14
ROSE             N/A      9   6  87 W23         N/A  WCI -11
NEWPORT          N/A     30  25  80 NW26        N/A  WCI  16
SARGENT          N/A      5   2  86 NW9G16      N/A  WCI  -9
COMSTOCK         N/A      7   0  73 W23         N/A  WCI -14
CHAMBERS         N/A      7   2  80 NW22        N/A  WCI -13
EWING            N/A      4   1  87 N15G26      N/A  WCI -14
$$

...OBSERVATIONS IN SOUTHWEST NEBRASKA AND FAR NORTHEAST COLORADO...

CITY           SKY/WX    TMP DP  RH WIND       PRES   REMARKS
WRAY           LGT SNOW  18  12  79 MISG      30.26S
IMPERIAL       PTSUNNY   13   4  67 N32G38    30.27R WCI  -9
OGALLALA       PTSUNNY   11   3  70 N24       30.29S WCI  -9
NORTH PLATTE   CLOUDY    10   1  67 N23G35    30.26S WCI -10
MCCOOK         PTSUNNY   14   5  67 NW28G33   30.27R WCI  -6
LEXINGTON      CLOUDY    11   6  78 N29       30.24S HAZE    WCI -10
BRADY            N/A      8   2  76 NE5G13      N/A  WCI   0
GOTHENBURG       N/A      8   1  73 NW18        N/A  WCI -11
CALLAWAY         N/A      6   3  86 N25         N/A  WCI -16
$$

...NORTH PLATTE AREA...

CITY           SKY/WX    TMP DP  RH WIND       PRES   REMARKS
AIRPORT        CLOUDY    10   1  67 N23G35    30.26S WCI -10
DOWNTOWN         N/A     10   3  72 N15G26      N/A  WCI  -7
$$

...SOME WEATHER OBSERVATIONS FROM AROUND THE REGION...

CITY           SKY/WX    TMP DP  RH WIND       PRES   REMARKS
DENVER         CLOUDY    21  16  81 E7        30.17S WCI  12
LARAMIE        MIX PCPN  20  12  71 NW22      30.10R WCI   3
CHEYENNE       CLOUDY    19  12  74 N13G23    30.12R WCI   6
SCOTTSBLUFF    CLOUDY    19   9  65 N21       30.28R WCI   3
RAPID CITY     SUNNY      8   4  83 N20       30.35S WCI -11
PIERRE         LGT SNOW   0  -7  72 NW21      30.46R WCI -22
WINNER         LGT SNOW   1  -6  72 N21       30.39S WCI -21
SIOUX FALLS    LGT SNOW   7   1  76 N23G31    30.25R BLWGSNOWWCI -14
OMAHA          SNOW      18  14  84 N29G38    30.04R VSB 1/2 WCI  -1
GRAND ISLAND   BLWGSNOW   8   3  80 NW28G39   30.20R VSB 1/2 WCI -14
KANSAS CITY    LGT SNOW  28  25  88 NW24G33   29.82R FOG     WCI  14
WICHITA        CLOUDY    25  15  66 NW30G40   30.07R WCI   8
HAYS           CLOUDY    19   5  53 NW21G30   30.20R WCI   3
LIBERAL        SUNNY     30  18  59 N32       30.22R WCI  15
GOODLAND       FLURRIES  18  12  77 N24G33    30.22R WCI   0
$$



USA.gov is the U.S. government's official web portal to all federal, state and local government web resources and services.